FW8758 Weather Reports


time (UTC)temp
F
wind
direction
speed
knots
gust
knots
rain 1hr
in
rain 24hr
in
rain mn
in
humidity
%
barometer
mb
20260508004535 43 187 0.0 1.7 0.00 0.03 0.03 80 1007.6
20260508003038 43 274 0.9 2.6 0.00 0.03 0.03 80 1007.6
20260508001536 44 226 0.0 1.7 0.00 0.03 0.03 79 1007.2
20260508000034 45 33 0.0 1.7 0.00 0.03 0.03 74 1007.0
20260507234536 46 23 0.0 6.1 0.00 0.03 0.03 74 1006.8
20260507233035 47 0 0.0 1.7 0.00 0.02 0.02 72 1006.6
20260507231546 47 0 0.0 3.5 0.00 0.02 0.02 72 1006.6
20260507230034 48 0 0.0 1.7 0.00 0.02 0.02 72 1006.5
20260507224536 48 113 0.0 1.7 0.00 0.02 0.02 68 1006.3
20260507223030 50 287 0.9 3.5 0.00 0.02 0.02 63 1006.2
20260507221535 51 198 0.9 4.3 0.00 0.02 0.02 63 1006.2
20260507220035 51 338 1.7 7.0 0.00 0.02 0.02 61 1006.1
20260507214534 51 126 1.7 9.6 0.00 0.02 0.02 64 1005.9
20260507213034 50 250 2.6 10.4 0.00 0.02 0.02 65 1005.6
20260507211532 51 281 2.6 10.4 0.00 0.02 0.02 60 1005.3
20260507210036 47 173 0.9 6.1 0.00 0.02 0.02 75 1005.4
20260507204534 45 202 0.9 5.2 0.00 0.02 0.02 77 1005.5
20260507203040 45 274 3.5 10.4 0.02 0.02 0.02 74 1005.5
20260507201539 46 121 0.0 2.6 0.02 0.02 0.02 79 1005.3
20260507200045 45 0 0.0 1.7 0.02 0.02 0.02 78 1005.5
20260507194534 46 67 0.0 1.7 0.01 0.01 0.01 78 1005.4
20260507193035 47 9 0.0 3.5 0.00 0.00 0.00 73 1005.3
20260507191535 50 329 0.9 7.8 0.00 0.00 0.00 70 1005.2
20260507190034 51 57 5.2 13.0 0.00 0.00 0.00 57 1004.8
20260507184536 50 246 3.5 9.6 0.00 0.00 0.00 59 1004.8
20260507183040 49 219 0.9 4.3 0.00 0.00 0.00 67 1004.7
20260507181535 48 232 0.0 2.6 0.00 0.00 0.00 71 1004.6
20260507180041 48 294 0.0 2.6 0.00 0.00 0.00 73 1004.7
20260507174536 48 0 0.0 2.6 0.00 0.00 0.00 75 1004.8
20260507173044 48 317 0.0 2.6 0.00 0.00 0.00 70 1004.5
20260507171551 50 241 3.5 13.0 0.00 0.00 0.00 60 1004.5
20260507170035 51 205 5.2 11.3 0.00 0.00 0.00 56 1004.4
20260507164548 51 183 4.3 14.8 0.00 0.03 0.00 57 1004.5
20260507163034 52 246 7.0 14.8 0.00 0.03 0.00 54 1004.8
20260507161540 51 244 6.1 13.0 0.00 0.03 0.00 54 1004.8
20260507160039 51 238 4.3 16.5 0.00 0.03 0.00 57 1004.9
20260507154538 51 291 4.3 13.9 0.00 0.08 0.00 59 1005.1
20260507153033 50 184 6.1 13.0 0.00 0.08 0.00 60 1005.2
20260507151539 48 265 6.1 13.0 0.00 0.08 0.00 63 1005.4
20260507150036 48 257 6.1 13.0 0.00 0.08 0.00 66 1005.5
20260507144535 46 286 4.3 10.4 0.00 0.14 0.00 68 1005.4
20260507143036 47 273 5.2 10.4 0.00 0.14 0.00 67 1005.4
20260507141533 46 236 4.3 12.2 0.00 0.14 0.00 69 1005.7
20260507140034 45 164 4.3 9.6 0.00 0.14 0.00 76 1005.6
20260507134547 44 236 1.7 8.7 0.00 0.18 0.00 80 1005.6
20260507133035 45 265 1.7 7.0 0.00 0.18 0.00 83 1005.7
20260507131538 45 205 2.6 9.6 0.00 0.18 0.00 80 1005.8
20260507130034 46 229 5.2 10.4 0.00 0.18 0.00 80 1005.8
20260507124534 45 257 2.6 11.3 0.00 0.21 0.00 83 1006.0
20260507123030 45 254 4.3 12.2 0.00 0.21 0.00 82 1005.9
20260507121535 45 246 2.6 8.7 0.00 0.21 0.00 83 1005.8
20260507120035 45 173 1.7 6.1 0.00 0.21 0.00 83 1005.6
20260507114535 45 241 2.6 7.8 0.00 0.23 0.00 83 1005.9
20260507113033 44 190 2.6 6.1 0.00 0.23 0.00 83 1005.6
20260507111536 44 238 1.7 4.3 0.00 0.23 0.00 86 1005.6
20260507110047 43 265 0.9 3.5 0.00 0.23 0.00 87 1005.8
20260507104535 42 203 0.0 1.7 0.00 0.26 0.00 88 1005.8
20260507103032 41 241 0.0 1.7 0.00 0.26 0.00 88 1005.9
20260507101541 41 0 0.0 1.7 0.00 0.26 0.00 89 1005.9
20260507100036 40 0 0.0 1.7 0.00 0.26 0.00 88 1005.8
20260507094536 40 0 0.0 0.0 0.00 0.26 0.00 88 1005.7
20260507093035 41 0 0.0 1.7 0.00 0.26 0.00 87 1005.8
20260507091537 41 0 0.0 1.7 0.00 0.26 0.00 87 1005.8
20260507090039 41 0 0.0 1.7 0.00 0.26 0.00 86 1005.9
20260507084540 41 0 0.0 2.6 0.00 0.26 0.00 86 1005.8
20260507083038 41 278 0.0 4.3 0.00 0.26 0.00 86 1005.9
20260507081535 41 250 0.9 2.6 0.00 0.26 0.00 86 1006.0
20260507080034 42 186 0.9 3.5 0.00 0.26 0.00 86 1005.9
20260507074543 42 250 0.0 2.6 0.00 0.26 0.00 86 1006.0
20260507073030 42 221 0.0 1.7 0.00 0.26 0.00 85 1005.9
20260507071532 42 258 0.9 1.7 0.00 0.26 0.00 85 1006.1
20260507070044 43 0 0.0 1.7 0.00 0.26 0.00 84 1005.8
20260507064538 43 158 0.0 2.6 0.00 0.26 0.00 84 1006.0
20260507063036 43 225 0.9 3.5 0.00 0.26 0.00 84 1006.2
20260507061530 43 248 0.9 3.5 0.00 0.26 0.00 84 1006.2
20260507060032 43 203 0.0 3.5 0.00 0.26 0.00 84 1006.4
20260507054535 43 235 1.7 4.3 0.00 0.26 0.00 85 1006.4
20260507053038 42 215 0.9 2.6 0.00 0.26 0.00 86 1006.8
20260507051540 42 224 0.0 1.7 0.00 0.26 0.00 86 1006.9
20260507050041 42 0 0.0 1.7 0.00 0.26 0.00 86 1007.0
20260507044534 42 0 0.0 1.7 0.00 0.26 0.00 85 1007.2
20260507043036 42 0 0.0 2.6 0.00 0.26 0.00 85 1007.4
20260507041537 42 227 0.0 1.7 0.00 0.26 0.00 85 1007.5
20260507040035 42 0 0.0 0.0 0.00 0.26 0.00 84 1007.4
20260507034551 42 0 0.0 1.7 0.00 0.26 0.26 84 1007.5
20260507033042 42 0 0.0 1.7 0.00 0.26 0.26 84 1007.7
20260507031536 42 0 0.0 2.6 0.00 0.26 0.26 83 1007.8
20260507030036 43 0 0.0 1.7 0.00 0.26 0.26 83 1007.9
20260507024548 43 0 0.0 1.7 0.00 0.26 0.26 83 1008.2
20260507023030 43 0 0.9 1.7 0.00 0.26 0.26 84 1008.2
20260507021545 42 0 0.0 1.7 0.00 0.26 0.26 83 1008.6
20260507020035 43 0 0.0 1.7 0.00 0.26 0.26 83 1008.5
20260507014540 43 0 0.0 1.7 0.00 0.26 0.26 83 1008.5
20260507013034 43 230 0.0 1.7 0.00 0.26 0.26 84 1008.4
20260507011539 43 223 0.0 1.7 0.00 0.26 0.26 84 1008.4
20260507010042 43 198 0.0 1.7 0.00 0.26 0.26 84 1008.4